Location: Demmingen
(48.6757°N, 10.4375°E)
Time: 11:53:30
(UTC+00:00)

Cosmos 1745 Rocket - Pass Details

Date: 15 August 2024
Orbit: 952 x 997 km, 83.0° (Epoch: 16 September)

Event Time Altitude Azimuth Distance (km) Brightness Sun altitude
Rises 01:10:53 0° 356° (N) 3,641 7.9 -23.0°
Reaches altitude 10° 01:13:38 10° 5° (N) 2,694 7.2 -22.7°
Maximum altitude 01:19:13 35° 70° (ENE) 1,503 5.4 -22.3°
Drops below altitude 10° 01:24:48 10° 135° (SE) 2,697 6.2 -21.8°
Sets 01:27:33 0° 144° (SE) 3,646 6.8 -21.6°
